EW5961 Weather Reports


Display with metric or nautical units.
time (UTC)temp
F
wind
direction
speed
MPH
gust
MPH
rain 1hr
in
rain 24hr
in
rain mn
in
humidity
%
barometer
mb
20260508171546 93 118 9.0 20.0 0.00 0.00 0.00 56 1010.3
20260508170044 93 141 12.0 20.0 0.00 0.00 0.00 57 1010.5
20260508164541 92 121 12.0 20.0 0.00 0.00 0.00 58 1010.9
20260508161536 91 144 12.0 19.0 0.00 0.00 0.00 60 1011.5
20260508160056 90 96 12.0 21.0 0.00 0.00 0.00 61 1011.7
20260508154533 90 135 13.0 23.0 0.00 0.00 0.00 61 1011.8
20260508153029 89 117 12.0 23.0 0.00 0.00 0.00 64 1011.9
20260508151523 87 141 13.0 23.0 0.00 0.00 0.00 68 1012.0
20260508150022 85 140 13.0 21.0 0.00 0.00 0.00 71 1012.5
20260508144519 87 159 11.0 21.0 0.00 0.00 0.00 71 1012.5
20260508143017 85 115 13.0 23.0 0.00 0.00 0.00 74 1012.6
20260508141515 84 146 11.0 20.0 0.00 0.00 0.00 77 1012.6
20260508140010 82 134 12.0 21.0 0.00 0.00 0.00 80 1012.6
20260508134512 81 138 11.0 19.0 0.00 0.00 0.00 82 1012.4
20260508133014 81 118 10.0 15.0 0.00 0.00 0.00 84 1012.3
20260508131503 80 108 7.0 14.0 0.00 0.00 0.00 85 1012.3
20260508124556 78 84 4.0 12.0 0.00 0.00 0.00 88 1012.2
20260508123054 78 138 6.0 12.0 0.00 0.00 0.00 88 1011.9
20260508121604 77 111 7.0 12.0 0.00 0.00 0.00 88 1011.9
20260508120047 77 105 6.0 9.0 0.00 0.00 0.00 88 1011.6
20260508114543 77 102 6.0 10.0 0.00 0.00 0.00 88 1011.2
20260508113040 77 125 7.0 12.0 0.00 0.00 0.00 88 1011.0
20260508111539 77 150 6.0 10.0 0.00 0.00 0.00 88 1010.5
20260508110049 77 122 8.0 15.0 0.00 0.00 0.00 88 1010.3
20260508104536 78 128 9.0 13.0 0.00 0.00 0.00 88 1010.0
20260508103037 78 117 11.0 16.0 0.00 0.00 0.00 87 1010.0
20260508100033 78 112 7.0 13.0 0.00 0.00 0.00 87 1009.9
20260508094530 78 142 10.0 16.0 0.00 0.00 0.00 86 1009.6
20260508093029 79 117 10.0 15.0 0.00 0.00 0.00 86 1009.5
20260508091526 79 140 9.0 16.0 0.00 0.00 0.00 85 1009.7
20260508090024 79 127 8.0 15.0 0.00 0.00 0.00 85 1009.6
20260508084523 79 76 9.0 13.0 0.00 0.00 0.00 84 1009.7
20260508083104 80 121 8.0 15.0 0.00 0.00 0.00 84 1009.7
20260508081521 80 141 7.0 18.0 0.00 0.00 0.00 83 1009.6
20260508080016 80 129 8.0 13.0 0.00 0.00 0.00 83 1009.8
20260508074514 80 120 9.0 13.0 0.00 0.00 0.00 82 1010.0
20260508073012 81 135 11.0 16.0 0.00 0.00 0.00 82 1010.1
20260508071511 81 130 10.0 17.0 0.00 0.00 0.00 81 1010.3
20260508070009 81 128 10.0 15.0 0.00 0.00 0.00 80 1010.4
20260508064520 82 138 11.0 20.0 0.00 0.00 0.00 80 1010.6
20260508063002 82 140 13.0 16.0 0.00 0.00 0.00 79 1010.9
20260508061603 82 134 13.0 18.0 0.00 0.00 0.00 79 1011.0
20260508060107 83 138 11.0 18.0 0.00 0.00 0.00 78 1011.3
20260508054604 83 134 14.0 20.0 0.00 0.00 0.00 77 1011.5
20260508053102 83 134 12.0 19.0 0.00 0.00 0.00 76 1011.5
20260508051555 84 126 13.0 19.0 0.00 0.00 0.00 76 1011.7
20260508050057 84 130 15.0 22.0 0.00 0.00 0.00 75 1011.6
20260508044554 84 130 16.0 23.0 0.00 0.00 0.00 74 1011.6
20260508043054 85 127 12.0 20.0 0.00 0.00 0.00 73 1011.5
20260508041558 85 84 16.0 24.0 0.00 0.00 0.00 72 1011.6
20260508040055 86 134 17.0 26.0 0.00 0.00 0.00 70 1011.2
20260508034557 87 121 15.0 23.0 0.00 0.00 0.00 69 1011.1
20260508033055 87 123 15.0 21.0 0.00 0.00 0.00 68 1010.9
20260508031551 88 130 12.0 25.0 0.00 0.00 0.00 67 1010.6
20260508030151 88 120 16.0 27.0 0.00 0.00 0.00 66 1010.3
20260508024601 89 137 17.0 26.0 0.00 0.00 0.00 64 1009.7
20260508023050 90 140 12.0 23.0 0.00 0.00 0.00 61 1009.5
20260508021549 91 135 12.0 22.0 0.00 0.00 0.00 59 1009.2
20260508020049 92 125 17.0 30.0 0.00 0.00 0.00 57 1009.0
20260508014547 93 119 14.0 24.0 0.00 0.00 0.00 55 1008.8
20260508013047 93 133 16.0 26.0 0.00 0.00 0.00 54 1008.4
20260508011559 94 105 13.0 18.0 0.00 0.00 0.00 52 1008.1
20260508010057 95 114 11.0 20.0 0.00 0.00 0.00 50 1007.9
20260508004556 96 140 10.0 15.0 0.00 0.00 0.00 49 1007.6
20260508003045 96 138 11.0 19.0 0.00 0.00 0.00 48 1007.7
20260508001546 97 123 9.0 13.0 0.00 0.00 0.00 46 1007.7
20260508000043 98 120 11.0 16.0 0.00 0.00 0.00 45 1007.4
20260507234544 99 135 12.0 15.0 0.00 0.00 0.00 44 1007.4
20260507233042 99 121 9.0 18.0 0.00 0.00 0.00 44 1007.3
20260507231550 100 105 9.0 15.0 0.00 0.00 0.00 43 1007.0
20260507230041 100 143 8.0 16.0 0.00 0.00 0.00 42 1007.0
20260507224553 100 132 9.0 13.0 0.00 0.00 0.00 42 1006.9
20260507223040 100 128 6.0 14.0 0.00 0.00 0.00 41 1006.8
20260507221539 101 103 9.0 14.0 0.00 0.00 0.00 41 1006.8
20260507220039 100 43 9.0 17.0 0.00 0.00 0.00 42 1006.8
20260507214535 101 41 4.0 16.0 0.00 0.00 0.00 41 1007.0
20260507213034 101 105 7.0 14.0 0.00 0.00 0.00 41 1007.1
20260507211532 100 125 5.0 16.0 0.00 0.00 0.00 42 1007.3
20260507210029 100 153 6.0 14.0 0.00 0.00 0.00 42 1007.5
20260507204528 101 134 7.0 14.0 0.00 0.00 0.00 43 1007.7
20260507203025 100 155 7.0 23.0 0.00 0.00 0.00 44 1007.8
20260507201524 100 165 9.0 14.0 0.00 0.00 0.00 42 1008.0
20260507200032 100 148 10.0 19.0 0.00 0.00 0.00 44 1008.2
20260507194619 100 103 8.0 17.0 0.00 0.00 0.00 45 1008.4
20260507193017 99 144 6.0 21.0 0.00 0.00 0.00 46 1008.7
20260507191512 99 146 10.0 14.0 0.00 0.00 0.00 46 1009.0
20260507190020 99 95 11.0 19.0 0.00 0.00 0.00 46 1009.3
20260507184503 98 144 9.0 18.0 0.00 0.00 0.00 48 1009.5
20260507183100 97 113 13.0 20.0 0.00 0.00 0.00 50 1009.9
20260507181558 96 134 7.0 18.0 0.00 0.00 0.00 51 1010.1
20260507180054 97 140 12.0 21.0 0.00 0.00 0.00 51 1010.2
20260507174551 95 144 9.0 17.0 0.00 0.00 0.00 54 1010.6
20260507173053 94 148 10.0 19.0 0.00 0.00 0.00 55 1011.0